Weather reports worldwide

Advertisment
Pamplona/Noain, Spain (8085): temperature & dewpoint: 08.11.2018 13:00:00 - 14.11.2018 13:00:00 (CET)Pamplona/Noain, Spain (8085): wind speed: 08.11.2018 13:00:00 - 14.11.2018 13:00:00 (CET)Pamplona/Noain, Spain (8085): wind direction: 08.11.2018 13:00:00 - 14.11.2018 13:00:00 (CET)Pamplona/Noain, Spain (8085): reduced air pressure: 08.11.2018 13:00:00 - 14.11.2018 13:00:00 (CET)Pamplona/Noain, Spain (8085): visibility: 08.11.2018 13:00:00 - 14.11.2018 13:00:00 (CET)
Date & Time tt [°C] td [°C] ff [km/h] ff [kn] dd ppp [hPa] vv [km]
14.11.2018 13:00:00 16,6 11,3 11 6 ESE 1022,5 9
14.11.2018 12:00:00 15,4 11,5 5 3 NE 1023,7 16
14.11.2018 11:00:00 13,8 11,5 2 1 N 1024,7 9
14.11.2018 10:00:00 12,3 10,8 0 0 N 1025,3 8
14.11.2018 09:00:00 11,3 10,7 0 0 N 1025,6 10
14.11.2018 08:00:00 10,4 9,6 2 1 NNW 1025,4 10
14.11.2018 07:00:00 11,0 10,0 2 1 - - 7
14.11.2018 06:00:00 11,0 10,0 4 2 - - 7
14.11.2018 05:00:00 9,6 9,1 2 1 - 1025,8 7
14.11.2018 04:00:00 9,5 9,0 0 0 N 1026,2 4,3
14.11.2018 03:00:00 9,0 8,7 4 2 NE 1026,6 9
14.11.2018 02:00:00 7,9 7,5 5 3 SE 1027,1 4,5
14.11.2018 01:00:00 8,3 7,9 5 3 SSE 1027,4 6
14.11.2018 00:00:00 8,7 8,1 4 2 - 1027,5 5
13.11.2018 23:00:00 9,6 9,0 0 0 N 1027,7 10
13.11.2018 22:00:00 10,7 9,9 4 2 NE 1027,4 10
13.11.2018 21:00:00 11,2 10,1 2 1 - 1027,2 10
13.11.2018 20:00:00 11,2 10,2 8 4 SSE 1027,1 10
13.11.2018 19:00:00 11,8 10,4 8 4 SE 1026,5 10
13.11.2018 18:00:00 13,0 10,4 8 4 SSE 1025,7 30
13.11.2018 17:00:00 14,6 10,8 4 2 WSW 1025,3 10
13.11.2018 16:00:00 15,9 10,9 4 2 - 1024,9 10
13.11.2018 15:00:00 16,7 10,5 5 3 W 1024,6 30
13.11.2018 14:00:00 15,5 10,2 4 2 N 1025,2 10
13.11.2018 13:00:00 14,2 10,0 5 3 E 1026,2 30
13.11.2018 12:00:00 13,4 9,4 4 2 E 1027,1 30
13.11.2018 11:00:00 12,5 9,3 4 2 - 1027,3 10
13.11.2018 10:00:00 11,5 9,2 2 1 - 1027,3 10
13.11.2018 09:00:00 10,7 9,5 4 2 N 1026,8 30
13.11.2018 08:00:00 10,0 8,4 5 3 NW 1026,0 10
13.11.2018 07:00:00 10,7 9,0 5 3 NW 1025,3 10
13.11.2018 06:00:00 10,7 9,5 5 3 WNW 1024,8 10
13.11.2018 05:00:00 10,7 9,3 8 4 NW 1024,4 30
13.11.2018 04:00:00 10,7 9,5 11 6 WNW 1024,4 10
13.11.2018 03:00:00 10,9 9,5 9 5 NW 1024,2 30
13.11.2018 02:00:00 10,7 9,8 8 4 WNW 1023,8 30
13.11.2018 01:00:00 10,7 9,9 5 3 WNW 1023,5 10
13.11.2018 00:00:00 10,6 10,1 8 4 WNW 1022,6 1,2
12.11.2018 23:00:00 11,7 11,1 15 8 WNW 1021,1 1,3
12.11.2018 22:00:00 14,3 12,0 11 6 WSW 1019,7 10
12.11.2018 21:00:00 15,2 10,6 9 5 S 1018,6 30
12.11.2018 20:00:00 15,7 10,4 9 5 S 1017,9 10
12.11.2018 19:00:00 15,6 10,3 8 4 E 1017,3 10
12.11.2018 18:00:00 16,2 9,6 8 4 S 1016,0 10
12.11.2018 17:00:00 17,1 10,1 13 7 SE 1015,5 10
12.11.2018 16:00:00 18,1 9,5 21 11 S 1015,0 30
12.11.2018 15:00:00 17,9 9,6 24 13 SSE 1015,2 10
12.11.2018 14:00:00 17,8 9,9 16 9 S 1015,2 30
12.11.2018 13:00:00 17,2 9,9 16 9 SSE 1015,5 30
12.11.2018 12:00:00 17,2 9,9 18 10 S 1015,9 10
12.11.2018 11:00:00 16,4 9,8 21 11 SSE 1015,6 30
12.11.2018 10:00:00 17,0 10,6 16 9 SE 1014,8 30
12.11.2018 09:00:00 14,9 9,9 9 5 ESE 1014,8 10
12.11.2018 08:00:00 14,4 9,8 22 12 SE 1013,7 10
12.11.2018 07:00:00 14,6 9,4 24 13 SE 1013,3 10
12.11.2018 06:00:00 15,3 9,0 26 14 SSE 1012,6 10
12.11.2018 05:00:00 14,3 9,3 26 14 SE 1011,6 10
12.11.2018 04:00:00 14,5 9,7 31 17 SE 1010,6 10
12.11.2018 03:00:00 15,8 9,2 34 18 SSE 1010,6 30
12.11.2018 02:00:00 15,7 9,6 31 17 SE 1010,0 10
12.11.2018 01:00:00 15,4 9,3 28 15 ESE 1009,8 8
12.11.2018 00:00:00 15,8 9,2 28 15 SSE 1009,2 30
11.11.2018 23:00:00 15,5 9,6 26 14 SSE 1009,9 10
11.11.2018 22:00:00 16,6 9,0 29 16 SSE 1009,9 10
11.11.2018 21:00:00 16,0 9,4 21 11 SE 1010,3 10
11.11.2018 20:00:00 16,0 9,8 22 12 ESE 1010,3 10
11.11.2018 19:00:00 16,6 9,9 28 15 SE 1009,8 10
11.11.2018 18:00:00 16,8 10,2 22 12 S 1009,7 30
11.11.2018 17:00:00 15,9 10,8 21 11 SSE 1009,8 30
11.11.2018 16:00:00 16,7 10,2 18 10 SE 1009,9 10
11.11.2018 15:00:00 16,9 10,0 26 14 SE 1010,6 10
11.11.2018 14:00:00 17,2 10,3 29 16 SE 1010,8 10
11.11.2018 13:00:00 16,8 10,0 22 12 SE 1011,7 10
11.11.2018 12:00:00 16,3 10,2 26 14 SSE 1012,4 30
11.11.2018 11:00:00 16,1 10,1 28 15 SSE 1012,4 30
11.11.2018 10:00:00 14,7 9,8 24 13 SE 1012,7 10
11.11.2018 09:00:00 13,6 9,2 18 10 SE 1012,4 30
11.11.2018 08:00:00 13,2 9,0 11 6 E 1011,5 10
11.11.2018 07:00:00 13,4 8,0 18 10 ESE 1010,9 30
11.11.2018 06:00:00 11,7 7,4 15 8 S 1011,5 30
11.11.2018 05:00:00 10,3 7,5 18 10 SSE 1011,6 10
11.11.2018 04:00:00 9,8 7,9 4 2 SW 1012,1 10
11.11.2018 03:00:00 10,4 8,2 4 2 NNE 1012,6 30
11.11.2018 02:00:00 10,9 8,1 2 1 ENE 1012,8 10
11.11.2018 01:00:00 10,7 7,9 9 5 ESE 1012,4 10
11.11.2018 00:00:00 12,3 8,4 13 7 SSE 1012,0 10
10.11.2018 23:00:00 14,1 6,9 15 8 SSW 1011,6 10
10.11.2018 22:00:00 13,1 7,7 13 7 S 1011,4 10
10.11.2018 21:00:00 13,3 8,8 13 7 SSW 1010,7 10
10.11.2018 20:00:00 12,5 10,0 4 2 NNE 1010,5 30
10.11.2018 19:00:00 12,5 10,3 15 8 S 1009,6 10
10.11.2018 18:00:00 13,7 10,1 21 11 S 1009,0 10
10.11.2018 17:00:00 14,0 10,2 15 8 SSW 1008,8 10
10.11.2018 16:00:00 15,0 10,0 15 8 SE - 10
10.11.2018 15:00:00 15,2 10,4 21 11 SSW 1008,5 30
10.11.2018 14:00:00 16,9 9,9 9 5 SSE 1008,3 10
10.11.2018 13:00:00 16,2 9,1 16 9 S 1009,3 10
10.11.2018 12:00:00 13,1 9,8 9 5 N 1010,3 10
10.11.2018 11:00:00 12,8 8,3 4 2 N 1010,4 10
10.11.2018 10:00:00 12,4 7,3 9 5 S 1010,4 15
10.11.2018 09:00:00 11,7 7,4 18 10 SE 1010,6 11
10.11.2018 08:00:00 10,9 6,9 4 2 SSE 1010,3 10
10.11.2018 07:00:00 10,4 6,5 22 12 ESE 1010,6 10
10.11.2018 06:00:00 9,9 6,4 4 2 W 1011,4 10
10.11.2018 05:00:00 10,0 6,2 16 9 ESE 1011,4 10
10.11.2018 04:00:00 9,5 5,9 8 4 SSE 1012,3 30
10.11.2018 03:00:00 9,4 5,8 13 7 SE 1013,0 10
10.11.2018 02:00:00 9,2 6,1 13 7 ESE 1013,5 10
10.11.2018 01:00:00 10,3 4,3 5 3 ENE 1013,8 10
10.11.2018 00:00:00 10,3 3,9 5 3 SE 1014,3 10
09.11.2018 23:00:00 10,0 4,5 11 6 SE 1015,0 10
09.11.2018 22:00:00 10,0 4,4 13 7 S 1015,3 10
09.11.2018 21:00:00 11,0 5,1 21 11 S 1015,3 30
09.11.2018 20:00:00 11,6 4,3 16 9 SW 1015,3 30
09.11.2018 19:00:00 11,3 3,3 18 10 SSW 1015,3 10
09.11.2018 18:00:00 10,6 2,7 9 5 SW 1015,1 10
09.11.2018 17:00:00 12,3 3,3 11 6 WSW 1014,5 30
09.11.2018 16:00:00 13,9 2,7 15 8 SW 1014,1 30
09.11.2018 15:00:00 14,6 5,6 8 4 S 1014,6 30
09.11.2018 14:00:00 12,7 5,5 4 2 SSW 1015,5 10
09.11.2018 13:00:00 12,3 6,8 2 1 NNW 1015,9 10
09.11.2018 12:00:00 11,8 6,8 4 2 - 1016,8 10
09.11.2018 11:00:00 10,0 6,7 8 4 WNW 1017,7 10
09.11.2018 10:00:00 9,3 7,0 5 3 NW 1017,3 30
09.11.2018 09:00:00 8,3 6,5 4 2 - 1017,4 10
09.11.2018 08:00:00 7,7 6,5 4 2 NW 1017,0 30
09.11.2018 07:00:00 7,7 6,6 2 1 W 1016,6 10
09.11.2018 06:00:00 7,5 6,6 0 0 N 1016,1 10
09.11.2018 05:00:00 7,5 6,9 4 2 - 1015,8 10
09.11.2018 04:00:00 7,5 6,8 0 0 N 1014,9 10
09.11.2018 03:00:00 7,5 6,9 4 2 WSW 1014,5 10
09.11.2018 02:00:00 7,5 6,8 9 5 E 1013,7 10
09.11.2018 01:00:00 7,6 6,8 5 3 E 1014,0 2,9
09.11.2018 00:00:00 8,4 6,4 21 11 W 1013,4 10
08.11.2018 23:00:00 11,2 8,4 8 4 S 1011,8 10
08.11.2018 22:00:00 12,2 7,3 26 14 ESE 1011,8 10
08.11.2018 21:00:00 11,8 6,9 22 12 ESE 1012,2 30
08.11.2018 20:00:00 11,6 6,4 21 11 ESE 1012,7 10
08.11.2018 19:00:00 11,4 6,2 15 8 ESE 1012,8 30
08.11.2018 18:00:00 11,6 6,1 24 13 ESE 1012,7 10
08.11.2018 17:00:00 12,8 5,7 21 11 ESE 1013,0 10
08.11.2018 16:00:00 13,0 5,2 22 12 SE 1013,2 10
08.11.2018 15:00:00 13,1 5,4 28 15 SE 1013,8 10
08.11.2018 14:00:00 13,0 5,8 21 11 SE 1014,5 30
08.11.2018 13:00:00 12,5 5,8 15 8 SE 1015,9 10

tt = temperature
td = dewpoint
ff = wind speed
dd = wind direction
ppp = reduced air pressure
vv = visibility

Next stations